Home > Weather > St. Croix Falls > Past weeks

Flag for USA Past Weather in St. Croix Falls, Wisconsin, USA — Yesterday and Last 2 Weeks

Now
68 °F

Clear.


Feels Like: 68 °F
Forecast: 60 / 70 °F
Wind: 9 mph from Southeast

Location: L O Simenstad Municipal Airport

Current Time: May 31, 2016 at 3:04:31 AM

Latest Report: May 31, 2016 at 2:35 AM


Visibility: 10 mi

Pressure: 29.91 "Hg

Humidity: 63%

Dew Point: 55 °F

Location of St. Croix FallsLocation

Past Weather in St. Croix Falls — Graph

°F

St. Croix Falls Temperature Yesterday

Maximum temperature yesterday: 82 °F (at 3:55 PM)
Minimum temperature yesterday: 51 °F (at 5:15 AM)
Average temperature yesterday: 69 °F

High & Low Weather Summary for the Past Weeks

 TemperatureHumidityPressure
High84 °F (May 22, 4:55 PM)100% (May 16, 6:15 AM)30.38 "Hg (May 16, 6:15 AM)
Low34 °F (May 18, 5:15 AM)18% (May 22, 3:55 PM)29.75 "Hg (May 23, 12:35 PM)
Average63 °F67%30.02 "Hg
* Reported May 16 2:15 AM — May 31 2:15 AM, St. Croix Falls, Weather by CustomWeather, © 2016

Note: Actual official high and low records may vary slightly from our data, if they occured in-between our weather recording intervals... More about our weather records

Advertising

St. Croix Falls Weather History for the Previous 24 Hours

Scroll right to see more
 ConditionsComfort  
Time TempWeatherWind HumidityBarometerVisibility
2:15 AM
Tue, May 31
67 °FClear.8 mph63%29.91 "Hg10 mi
1:55 AM68 °FPassing clouds.9 mph62%29.92 "Hg10 mi
1:15 AM69 °FPartly cloudy.9 mph57%29.92 "Hg10 mi
12:55 AM69 °FClear.7 mph56%29.93 "Hg10 mi
12:35 AM70 °FClear.10 mph53%29.93 "Hg10 mi
12:15 AM71 °FPassing clouds.12 mph49%29.94 "Hg10 mi
11:55 PM
Mon, May 30
72 °FPartly cloudy.10 mph50%29.94 "Hg10 mi
11:15 PM69 °FPassing clouds.7 mph58%29.95 "Hg10 mi
10:55 PM68 °FPassing clouds.6 mph66%29.95 "Hg10 mi
10:15 PM71 °FPassing clouds.7 mph59%29.95 "Hg10 mi
9:55 PM71 °FClear.8 mph56%29.95 "Hg10 mi
9:35 PM69 °FSunny.7 mph64%29.94 "Hg10 mi
9:15 PM70 °FSunny.6 mph61%29.94 "Hg10 mi
8:55 PM71 °FSunny.7 mph62%29.94 "Hg10 mi
8:35 PM72 °FSunny.6 mph62%29.93 "Hg10 mi
8:15 PM73 °FSunny.6 mph61%29.93 "Hg10 mi
7:55 PM76 °FSunny.5 mph47%29.93 "Hg10 mi
7:35 PM77 °FSunny.6 mph44%29.93 "Hg10 mi
7:15 PM78 °FSunny.8 mph41%29.93 "Hg10 mi
6:55 PM80 °FScattered clouds.9 mph38%29.93 "Hg10 mi
6:35 PM81 °FSunny.5 mph34%29.94 "Hg10 mi
6:15 PM81 °FSunny.7 mph35%29.94 "Hg10 mi
5:55 PM82 °FSunny.6 mph33%29.95 "Hg10 mi
5:35 PM81 °FSunny.7 mph34%29.95 "Hg10 mi
5:15 PM81 °FSunny.6 mph33%29.96 "Hg10 mi
4:55 PM82 °FScattered clouds.5 mph35%29.96 "Hg10 mi
4:35 PM82 °FScattered clouds.8 mph35%29.97 "Hg10 mi
4:15 PM81 °FScattered clouds.8 mph37%29.97 "Hg10 mi
3:55 PM82 °FScattered clouds.9 mph36%29.98 "Hg10 mi
3:35 PM81 °FSunny.9 mph38%29.99 "Hg10 mi
3:15 PM81 °FSunny.8 mph40%29.99 "Hg10 mi
2:55 PM81 °FScattered clouds.8 mph38%29.99 "Hg10 mi
2:35 PM81 °FScattered clouds.10 mph41%30.00 "Hg10 mi
2:15 PM81 °FScattered clouds.8 mph38%30.00 "Hg10 mi
1:55 PM80 °FPartly sunny.10 mph39%30.01 "Hg10 mi
1:35 PM79 °FScattered clouds.10 mph39%30.01 "Hg10 mi
1:15 PM81 °FSunny.6 mph37%30.01 "Hg10 mi
12:55 PM79 °FSunny.7 mph44%30.01 "Hg10 mi
12:15 PM76 °FSunny.8 mph50%30.02 "Hg10 mi
11:55 AM75 °FSunny.3 mph58%30.03 "Hg10 mi
11:35 AM74 °FSunny.5 mph60%30.03 "Hg10 mi
11:15 AM73 °FSunny.3 mph60%30.03 "Hg10 mi
10:55 AM72 °FSunny.3 mph62%30.03 "Hg10 mi
10:35 AM72 °FSunny.5 mph69%30.03 "Hg10 mi
10:15 AM71 °FSunny.5 mph68%30.04 "Hg10 mi
9:55 AM71 °FSunny.No wind81%30.04 "Hg10 mi
9:35 AM70 °FSunny.5 mph81%30.04 "Hg10 mi
9:15 AM69 °FSunny.3 mph86%30.04 "Hg10 mi
8:55 AM67 °FScattered clouds.No wind88%30.05 "Hg10 mi
8:15 AM63 °FSunny.No wind100%30.04 "Hg10 mi
7:55 AM61 °FSunny.No wind100%30.04 "Hg10 mi
7:35 AM59 °FSunny.No wind100%30.04 "Hg10 mi
7:15 AM58 °FSunny.No wind100%30.04 "Hg10 mi
6:55 AM55 °FSunny.No wind100%30.03 "Hg10 mi
6:15 AM51 °FClear.No wind100%30.03 "Hg7 mi
5:55 AM51 °FFog.No wind100%30.03 "Hg4 mi
5:35 AM51 °FFog.No wind100%30.03 "Hg0 mi
5:15 AM51 °FFog.No wind100%30.03 "Hg1 mi
4:55 AM51 °FFog.No wind100%30.03 "Hg1 mi
4:15 AM52 °FPassing clouds.No wind100%30.01 "Hg10 mi
3:55 AM52 °FFog.No wind100%30.01 "Hg1 mi
3:15 AM53 °FClear.No wind100%30.01 "Hg10 mi
Weather by CustomWeather, © 2016

See weather overviewHow to use our weather pages